Погода в Якшуре

Россия / Удмуртская Республика     57°12′46″N   53°09′37″E
темп.,
°C
ветер,
м/с
пор.,
м/с
влажн.,
%
обл.,
%
осадки,
мм/ч
давл.,
гПа
погр.,
м
14 августа, вс
вс1401:00+11с227451 0.0 102218
04:00+10с127450 0.0 102310
07:00+14с116223 0.0 102373
10:00+20зсз12435 0.0 1023968
13:00+22сз243840 0.0 10222185
16:00+22зсз33403 0.0 10221834
19:00+18з116468 0.0 102214
22:00+15з116826 0.0 102211
15 августа, пн
пн1501:00+13зсз11867 0.0 102210
04:00+12ссз11932 0.0 102310
07:00+15с11820 0.0 1023100
10:00+20св11630 0.1 1023696
13:00+22ссв015430 0.6 10231429
16:00+22св125495 0.8 1023369
19:00+19с23640 0.0 102355
22:00+14св22730 0.0 102511
16 августа, вт
вт1601:00+12ссв11750 0.0 102510
04:00+12ссз11750 0.0 102610
07:00+15ссз11670 0.0 102764
10:00+21сз22465 0.0 1026738
13:00+24сз23383 0.0 10262036
16:00+24ссз333812 0.0 10252156
19:00+20сз2264100 0.0 102521
22:00+18ссз2266100 0.0 102529
17 августа, ср
ср1701:00+15св227997 0.0 102520
04:00+13в118531 0.0 102510
07:00+16юв117370 0.0 102583
10:00+21з1259100 0.0 1024593
13:00+25зсз244526 0.0 10231988
16:00+23сз365444 0.0 1022395
19:00+21сз366894 0.1 1021152
22:00+16с2795100 1.7 1022172
18 августа, чт
чт1801:00+13всв3896100 1.1 1023227
04:00+10всв38945 1.1 1024190
07:00+11всв37905 0.0 1025218
10:00+17всв345984 0.0 1026685
13:00+19всв344594 0.0 10251256
16:00+20всв334294 0.0 10251360
19:00+16в226412 0.0 102622
22:00+12св1171100 0.0 102710